Location: Aufkirchen
(47.9603°N, 11.3653°E)
Time: 06:41:18
(UTC+01:00)

Transit 4A - Pass Details

Date: 28 November 2020
Orbit: 864 x 980 km, 66.8° (Epoch: 25 January)

Event Time Altitude Azimuth Distance (km) Brightness Sun altitude
Rises 17:40:52 0° 321° (NW) 3,682 11.3 -12.3°
Reaches altitude 10° 17:43:34 10° 315° (NW) 2,722 10.7 -12.7°
Maximum altitude 17:49:30 42° 247° (WSW) 1,329 9.3 -13.6°
Drops below altitude 10° 17:55:15 10° 178° (S) 2,644 10.5 -14.6°
Sets 17:57:52 0° 172° (S) 3,566 11.0 -15.0°
